Cosmos 1184 Rocket - Orbit

View from above orbital plane
View from above orbital plane
View from above satellite
View from above satellite

Ground track
Ground track

The orbit data is extracted from the following two-line orbital elements,

1 11822U 80044B   13144.19490686  .00005769  00000-0  22333-3 0  5658
2 11822 081.2390 188.6063 0021646 060.4774 299.8615 15.25785528804705
Epoch (UTC): 24 May 2013 04:40:39
Eccentricity: 0.0021646
inclination: 81.2390°
perigee height: 473 km
apogee height: 503 km
right ascension of ascending node: 188.6063°
argument of perigee: 60.4774°
revolutions per day: 15.25785528
mean anomaly at epoch: 299.8615°
orbit number at epoch: 80470

The dashed part of the orbit path shows where the satellite is in the earth's shadow,  

Developed and maintained by Chris Peat, Heavens-Above GmbH. Please read the updated FAQ before sending e-mail. Imprint. DLR